owner,sensor,date,latitude,longitude,vertical_datum,sea_water_practical_salinity,qcFlag 
COMPS,ioos:station:USF.COMPS:ANC:1,2010-03-01T00:00:00Z,28.1930,-82.7890,1.0,18.168,1111122 
COMPS,ioos:station:USF.COMPS:ANC:1,2010-03-01T00:06:00Z,28.1930,-82.7890,1.0,18.162,1111122 
COMPS,ioos:station:USF.COMPS:ANC:1,2010-03-01T00:12:00Z,28.1930,-82.7890,1.0,18.115,1111122 
COMPS,ioos:station:USF.COMPS:ANC:1,2010-03-01T00:18:00Z,28.1930,-82.7890,1.0,18.087,1111122 
COMPS,ioos:station:USF.COMPS:ANC:1,2010-03-01T00:24:00Z,28.1930,-82.7890,1.0,18.067,1111122 
COMPS,ioos:station:USF.COMPS:ANC:1,2010-03-01T00:30:00Z,28.1930,-82.7890,1.0,18.009,1111122 
COMPS,ioos:station:USF.COMPS:ANC:1,2010-03-01T00:36:00Z,28.1930,-82.7890,1.0,17.964,1111122 
COMPS,ioos:station:USF.COMPS:ANC:1,2010-03-01T00:42:00Z,28.1930,-82.7890,1.0,17.899,1111122 
COMPS,ioos:station:USF.COMPS:ANC:1,2010-03-01T00:48:00Z,28.1930,-82.7890,1.0,17.781,1111122 
COMPS,ioos:station:USF.COMPS:ANC:1,2010-03-01T00:54:00Z,28.1930,-82.7890,1.0,17.586,1111122 
COMPS,ioos:station:USF.COMPS:ANC:1,2010-03-01T01:00:00Z,28.1930,-82.7890,1.0,17.618,1111122 
COMPS,ioos:station:USF.COMPS:ANC:1,2010-03-01T01:06:00Z,28.1930,-82.7890,1.0,17.48,1111122 
COMPS,ioos:station:USF.COMPS:ANC:1,2010-03-01T01:12:00Z,28.1930,-82.7890,1.0,17.346,1111122 
COMPS,ioos:station:USF.COMPS:ANC:1,2010-03-01T01:18:00Z,28.1930,-82.7890,1.0,17.184,1111122 
COMPS,ioos:station:USF.COMPS:ANC:1,2010-03-01T01:24:00Z,28.1930,-82.7890,1.0,17.07,1111122 
COMPS,ioos:station:USF.COMPS:ANC:1,2010-03-01T01:30:00Z,28.1930,-82.7890,1.0,16.889,1111122 
COMPS,ioos:station:USF.COMPS:ANC:1,2010-03-01T01:36:00Z,28.1930,-82.7890,1.0,16.752,1111122 
COMPS,ioos:station:USF.COMPS:ANC:1,2010-03-01T01:42:00Z,28.1930,-82.7890,1.0,16.655,1111122 
COMPS,ioos:station:USF.COMPS:ANC:1,2010-03-01T01:48:00Z,28.1930,-82.7890,1.0,16.539,1111122 
COMPS,ioos:station:USF.COMPS:ANC:1,2010-03-01T01:54:00Z,28.1930,-82.7890,1.0,16.439,1111122 
COMPS,ioos:station:USF.COMPS:ANC:1,2010-03-01T02:00:00Z,28.1930,-82.7890,1.0,16.359,1111122 
COMPS,ioos:station:USF.COMPS:ANC:1,2010-03-01T02:06:00Z,28.1930,-82.7890,1.0,16.264,1111122 
COMPS,ioos:station:USF.COMPS:ANC:1,2010-03-01T02:12:00Z,28.1930,-82.7890,1.0,16.18,1111122 
COMPS,ioos:station:USF.COMPS:ANC:1,2010-03-01T02:18:00Z,28.1930,-82.7890,1.0,16.093,1111122 
COMPS,ioos:station:USF.COMPS:ANC:1,2010-03-01T02:24:00Z,28.1930,-82.7890,1.0,15.998,1111122 
COMPS,ioos:station:USF.COMPS:ANC:1,2010-03-01T02:30:00Z,28.1930,-82.7890,1.0,15.927,1111122 
COMPS,ioos:station:USF.COMPS:ANC:1,2010-03-01T02:36:00Z,28.1930,-82.7890,1.0,15.876,1111122 
COMPS,ioos:station:USF.COMPS:ANC:1,2010-03-01T02:42:00Z,28.1930,-82.7890,1.0,15.844,1111122 
COMPS,ioos:station:USF.COMPS:ANC:1,2010-03-01T02:48:00Z,28.1930,-82.7890,1.0,15.812,1111122 
COMPS,ioos:station:USF.COMPS:ANC:1,2010-03-01T02:54:00Z,28.1930,-82.7890,1.0,15.788,1111122 
COMPS,ioos:station:USF.COMPS:ANC:1,2010-03-01T03:00:00Z,28.1930,-82.7890,1.0,15.765,1111122 
COMPS,ioos:station:USF.COMPS:ANC:1,2010-03-01T03:06:00Z,28.1930,-82.7890,1.0,15.776,1111122 
COMPS,ioos:station:USF.COMPS:ANC:1,2010-03-01T03:12:00Z,28.1930,-82.7890,1.0,15.788,1111122 
COMPS,ioos:station:USF.COMPS:ANC:1,2010-03-01T03:18:00Z,28.1930,-82.7890,1.0,15.867,1111122 
COMPS,ioos:station:USF.COMPS:ANC:1,2010-03-01T03:24:00Z,28.1930,-82.7890,1.0,15.958,1111122 
COMPS,ioos:station:USF.COMPS:ANC:1,2010-03-01T03:30:00Z,28.1930,-82.7890,1.0,16.049,1111122 
COMPS,ioos:station:USF.COMPS:ANC:1,2010-03-01T03:36:00Z,28.1930,-82.7890,1.0,16.16,1111122 
COMPS,ioos:station:USF.COMPS:ANC:1,2010-03-01T03:42:00Z,28.1930,-82.7890,1.0,16.231,1111122 
COMPS,ioos:station:USF.COMPS:ANC:1,2010-03-01T03:48:00Z,28.1930,-82.7890,1.0,16.325,1111122 
COMPS,ioos:station:USF.COMPS:ANC:1,2010-03-01T03:54:00Z,28.1930,-82.7890,1.0,16.385,1111122 
COMPS,ioos:station:USF.COMPS:ANC:1,2010-03-01T04:00:00Z,28.1930,-82.7890,1.0,16.54,1111122 
COMPS,ioos:station:USF.COMPS:ANC:1,2010-03-01T04:06:00Z,28.1930,-82.7890,1.0,16.671,1111122 
COMPS,ioos:station:USF.COMPS:ANC:1,2010-03-01T04:12:00Z,28.1930,-82.7890,1.0,16.74,1111122 
COMPS,ioos:station:USF.COMPS:ANC:1,2010-03-01T04:18:00Z,28.1930,-82.7890,1.0,16.788,1111122 
COMPS,ioos:station:USF.COMPS:ANC:1,2010-03-01T04:24:00Z,28.1930,-82.7890,1.0,16.836,1111122 
COMPS,ioos:station:USF.COMPS:ANC:1,2010-03-01T04:30:00Z,28.1930,-82.7890,1.0,16.896,1111122 
COMPS,ioos:station:USF.COMPS:ANC:1,2010-03-01T04:36:00Z,28.1930,-82.7890,1.0,17.004,1111122 
COMPS,ioos:station:USF.COMPS:ANC:1,2010-03-01T04:42:00Z,28.1930,-82.7890,1.0,16.993,1111122 
COMPS,ioos:station:USF.COMPS:ANC:1,2010-03-01T04:48:00Z,28.1930,-82.7890,1.0,17.03,1111122 
COMPS,ioos:station:USF.COMPS:ANC:1,2010-03-01T04:54:00Z,28.1930,-82.7890,1.0,17.059,1111122 
COMPS,ioos:station:USF.COMPS:ANC:1,2010-03-01T05:00:00Z,28.1930,-82.7890,1.0,17.115,1111122 
COMPS,ioos:station:USF.COMPS:ANC:1,2010-03-01T05:06:00Z,28.1930,-82.7890,1.0,17.187,1111122 
COMPS,ioos:station:USF.COMPS:ANC:1,2010-03-01T05:12:00Z,28.1930,-82.7890,1.0,17.183,1111122 
COMPS,ioos:station:USF.COMPS:ANC:1,2010-03-01T05:18:00Z,28.1930,-82.7890,1.0,17.489,1111122 
COMPS,ioos:station:USF.COMPS:ANC:1,2010-03-01T05:24:00Z,28.1930,-82.7890,1.0,17.57,1111122 
COMPS,ioos:station:USF.COMPS:ANC:1,2010-03-01T05:30:00Z,28.1930,-82.7890,1.0,17.659,1111122 
COMPS,ioos:station:USF.COMPS:ANC:1,2010-03-01T05:36:00Z,28.1930,-82.7890,1.0,17.716,1111122 
COMPS,ioos:station:USF.COMPS:ANC:1,2010-03-01T05:42:00Z,28.1930,-82.7890,1.0,17.785,1111122 
COMPS,ioos:station:USF.COMPS:ANC:1,2010-03-01T05:48:00Z,28.1930,-82.7890,1.0,17.851,1111122 
COMPS,ioos:station:USF.COMPS:ANC:1,2010-03-01T05:54:00Z,28.1930,-82.7890,1.0,17.916,1111122 
COMPS,ioos:station:USF.COMPS:ANC:1,2010-03-01T06:00:00Z,28.1930,-82.7890,1.0,17.937,1111122 
COMPS,ioos:station:USF.COMPS:ANC:1,2010-03-01T06:06:00Z,28.1930,-82.7890,1.0,17.957,1111122 
COMPS,ioos:station:USF.COMPS:ANC:1,2010-03-01T06:12:00Z,28.1930,-82.7890,1.0,17.978,1111122 
COMPS,ioos:station:USF.COMPS:ANC:1,2010-03-01T06:18:00Z,28.1930,-82.7890,1.0,18.011,1111122 
COMPS,ioos:station:USF.COMPS:ANC:1,2010-03-01T06:24:00Z,28.1930,-82.7890,1.0,18.04,1111122 
COMPS,ioos:station:USF.COMPS:ANC:1,2010-03-01T06:30:00Z,28.1930,-82.7890,1.0,18.089,1111122 
COMPS,ioos:station:USF.COMPS:ANC:1,2010-03-01T06:36:00Z,28.1930,-82.7890,1.0,18.106,1111122 
COMPS,ioos:station:USF.COMPS:ANC:1,2010-03-01T06:42:00Z,28.1930,-82.7890,1.0,18.114,1111122 
COMPS,ioos:station:USF.COMPS:ANC:1,2010-03-01T06:48:00Z,28.1930,-82.7890,1.0,18.138,1111122 
COMPS,ioos:station:USF.COMPS:ANC:1,2010-03-01T06:54:00Z,28.1930,-82.7890,1.0,18.159,1111122 
COMPS,ioos:station:USF.COMPS:ANC:1,2010-03-01T07:00:00Z,28.1930,-82.7890,1.0,18.196,1111122 
COMPS,ioos:station:USF.COMPS:ANC:1,2010-03-01T07:06:00Z,28.1930,-82.7890,1.0,18.22,1111122 
COMPS,ioos:station:USF.COMPS:ANC:1,2010-03-01T07:12:00Z,28.1930,-82.7890,1.0,18.228,1111122 
COMPS,ioos:station:USF.COMPS:ANC:1,2010-03-01T07:18:00Z,28.1930,-82.7890,1.0,18.249,1111122 
COMPS,ioos:station:USF.COMPS:ANC:1,2010-03-01T07:24:00Z,28.1930,-82.7890,1.0,18.273,1111122 
COMPS,ioos:station:USF.COMPS:ANC:1,2010-03-01T07:30:00Z,28.1930,-82.7890,1.0,18.16,1111122 
COMPS,ioos:station:USF.COMPS:ANC:1,2010-03-01T07:36:00Z,28.1930,-82.7890,1.0,18.315,1111122 
COMPS,ioos:station:USF.COMPS:ANC:1,2010-03-01T07:42:00Z,28.1930,-82.7890,1.0,18.336,1111122 
COMPS,ioos:station:USF.COMPS:ANC:1,2010-03-01T07:48:00Z,28.1930,-82.7890,1.0,18.369,1111122 
COMPS,ioos:station:USF.COMPS:ANC:1,2010-03-01T07:54:00Z,28.1930,-82.7890,1.0,18.374,1111122 
COMPS,ioos:station:USF.COMPS:ANC:1,2010-03-01T08:00:00Z,28.1930,-82.7890,1.0,18.318,1111122 
COMPS,ioos:station:USF.COMPS:ANC:1,2010-03-01T08:06:00Z,28.1930,-82.7890,1.0,18.412,1111122 
COMPS,ioos:station:USF.COMPS:ANC:1,2010-03-01T08:12:00Z,28.1930,-82.7890,1.0,18.442,1111122 
COMPS,ioos:station:USF.COMPS:ANC:1,2010-03-01T08:18:00Z,28.1930,-82.7890,1.0,18.459,1111122 
COMPS,ioos:station:USF.COMPS:ANC:1,2010-03-01T08:24:00Z,28.1930,-82.7890,1.0,18.472,1111122 
COMPS,ioos:station:USF.COMPS:ANC:1,2010-03-01T08:30:00Z,28.1930,-82.7890,1.0,18.481,1111122 
COMPS,ioos:station:USF.COMPS:ANC:1,2010-03-01T08:36:00Z,28.1930,-82.7890,1.0,18.481,1111122 
COMPS,ioos:station:USF.COMPS:ANC:1,2010-03-01T08:42:00Z,28.1930,-82.7890,1.0,18.491,1111122 
COMPS,ioos:station:USF.COMPS:ANC:1,2010-03-01T08:48:00Z,28.1930,-82.7890,1.0,18.511,1111122 
COMPS,ioos:station:USF.COMPS:ANC:1,2010-03-01T08:54:00Z,28.1930,-82.7890,1.0,18.503,1111122 
COMPS,ioos:station:USF.COMPS:ANC:1,2010-03-01T09:00:00Z,28.1930,-82.7890,1.0,18.518,1111122 
COMPS,ioos:station:USF.COMPS:ANC:1,2010-03-01T09:06:00Z,28.1930,-82.7890,1.0,18.519,1111122 
COMPS,ioos:station:USF.COMPS:ANC:1,2010-03-01T09:12:00Z,28.1930,-82.7890,1.0,18.521,1111122 
COMPS,ioos:station:USF.COMPS:ANC:1,2010-03-01T09:18:00Z,28.1930,-82.7890,1.0,18.516,1111122 
COMPS,ioos:station:USF.COMPS:ANC:1,2010-03-01T09:24:00Z,28.1930,-82.7890,1.0,18.504,1111122 
COMPS,ioos:station:USF.COMPS:ANC:1,2010-03-01T09:30:00Z,28.1930,-82.7890,1.0,18.498,1111122 
COMPS,ioos:station:USF.COMPS:ANC:1,2010-03-01T09:36:00Z,28.1930,-82.7890,1.0,18.474,1111122 
COMPS,ioos:station:USF.COMPS:ANC:1,2010-03-01T09:42:00Z,28.1930,-82.7890,1.0,18.462,1111122 
COMPS,ioos:station:USF.COMPS:ANC:1,2010-03-01T09:48:00Z,28.1930,-82.7890,1.0,18.479,1111122 
COMPS,ioos:station:USF.COMPS:ANC:1,2010-03-01T09:54:00Z,28.1930,-82.7890,1.0,18.485,1111122 
COMPS,ioos:station:USF.COMPS:ANC:1,2010-03-01T10:00:00Z,28.1930,-82.7890,1.0,18.487,1111122 
COMPS,ioos:station:USF.COMPS:ANC:1,2010-03-01T10:06:00Z,28.1930,-82.7890,1.0,18.488,1111122 
COMPS,ioos:station:USF.COMPS:ANC:1,2010-03-01T10:12:00Z,28.1930,-82.7890,1.0,18.485,1111122 
COMPS,ioos:station:USF.COMPS:ANC:1,2010-03-01T10:18:00Z,28.1930,-82.7890,1.0,18.491,1111122 
COMPS,ioos:station:USF.COMPS:ANC:1,2010-03-01T10:24:00Z,28.1930,-82.7890,1.0,18.484,1111122 
COMPS,ioos:station:USF.COMPS:ANC:1,2010-03-01T10:30:00Z,28.1930,-82.7890,1.0,18.468,1111122 
COMPS,ioos:station:USF.COMPS:ANC:1,2010-03-01T10:36:00Z,28.1930,-82.7890,1.0,18.493,1111122 
COMPS,ioos:station:USF.COMPS:ANC:1,2010-03-01T10:42:00Z,28.1930,-82.7890,1.0,18.493,1111122 
COMPS,ioos:station:USF.COMPS:ANC:1,2010-03-01T10:48:00Z,28.1930,-82.7890,1.0,18.493,1111122 
COMPS,ioos:station:USF.COMPS:ANC:1,2010-03-01T10:54:00Z,28.1930,-82.7890,1.0,18.499,1111122 
COMPS,ioos:station:USF.COMPS:ANC:1,2010-03-01T11:00:00Z,28.1930,-82.7890,1.0,18.487,1111122 
COMPS,ioos:station:USF.COMPS:ANC:1,2010-03-01T11:06:00Z,28.1930,-82.7890,1.0,18.483,1111122 
COMPS,ioos:station:USF.COMPS:ANC:1,2010-03-01T11:12:00Z,28.1930,-82.7890,1.0,18.48,1111122 
COMPS,ioos:station:USF.COMPS:ANC:1,2010-03-01T11:18:00Z,28.1930,-82.7890,1.0,18.484,1111122 
COMPS,ioos:station:USF.COMPS:ANC:1,2010-03-01T11:24:00Z,28.1930,-82.7890,1.0,18.468,1111122 
COMPS,ioos:station:USF.COMPS:ANC:1,2010-03-01T11:30:00Z,28.1930,-82.7890,1.0,18.455,1111122 
COMPS,ioos:station:USF.COMPS:ANC:1,2010-03-01T11:36:00Z,28.1930,-82.7890,1.0,18.43,1111122 
COMPS,ioos:station:USF.COMPS:ANC:1,2010-03-01T11:42:00Z,28.1930,-82.7890,1.0,18.434,1111122 
COMPS,ioos:station:USF.COMPS:ANC:1,2010-03-01T11:48:00Z,28.1930,-82.7890,1.0,18.416,1111122 
COMPS,ioos:station:USF.COMPS:ANC:1,2010-03-01T11:54:00Z,28.1930,-82.7890,1.0,18.403,1111122 
COMPS,ioos:station:USF.COMPS:ANC:1,2010-03-01T12:00:00Z,28.1930,-82.7890,1.0,18.394,1111122 
COMPS,ioos:station:USF.COMPS:ANC:1,2010-03-01T12:06:00Z,28.1930,-82.7890,1.0,18.401,1111122 
COMPS,ioos:station:USF.COMPS:ANC:1,2010-03-01T12:12:00Z,28.1930,-82.7890,1.0,18.392,1111122 
COMPS,ioos:station:USF.COMPS:ANC:1,2010-03-01T12:18:00Z,28.1930,-82.7890,1.0,18.387,1111122 
COMPS,ioos:station:USF.COMPS:ANC:1,2010-03-01T12:24:00Z,28.1930,-82.7890,1.0,18.382,1111122 
COMPS,ioos:station:USF.COMPS:ANC:1,2010-03-01T12:30:00Z,28.1930,-82.7890,1.0,18.373,1111122 
COMPS,ioos:station:USF.COMPS:ANC:1,2010-03-01T12:36:00Z,28.1930,-82.7890,1.0,18.355,1111122 
COMPS,ioos:station:USF.COMPS:ANC:1,2010-03-01T12:42:00Z,28.1930,-82.7890,1.0,18.32,1111122 
COMPS,ioos:station:USF.COMPS:ANC:1,2010-03-01T12:48:00Z,28.1930,-82.7890,1.0,18.228,1111122 
COMPS,ioos:station:USF.COMPS:ANC:1,2010-03-01T12:54:00Z,28.1930,-82.7890,1.0,18.137,1111122 
COMPS,ioos:station:USF.COMPS:ANC:1,2010-03-01T13:00:00Z,28.1930,-82.7890,1.0,18.1,1111122 
COMPS,ioos:station:USF.COMPS:ANC:1,2010-03-01T13:06:00Z,28.1930,-82.7890,1.0,18.049,1111122 
COMPS,ioos:station:USF.COMPS:ANC:1,2010-03-01T13:12:00Z,28.1930,-82.7890,1.0,17.867,1111122 
COMPS,ioos:station:USF.COMPS:ANC:1,2010-03-01T13:18:00Z,28.1930,-82.7890,1.0,17.785,1111122 
COMPS,ioos:station:USF.COMPS:ANC:1,2010-03-01T13:24:00Z,28.1930,-82.7890,1.0,17.686,1111122 
COMPS,ioos:station:USF.COMPS:ANC:1,2010-03-01T13:30:00Z,28.1930,-82.7890,1.0,17.5,1111122 
COMPS,ioos:station:USF.COMPS:ANC:1,2010-03-01T13:36:00Z,28.1930,-82.7890,1.0,17.373,1111122 
COMPS,ioos:station:USF.COMPS:ANC:1,2010-03-01T13:42:00Z,28.1930,-82.7890,1.0,17.283,1111122 
COMPS,ioos:station:USF.COMPS:ANC:1,2010-03-01T13:48:00Z,28.1930,-82.7890,1.0,17.193,1111122 
COMPS,ioos:station:USF.COMPS:ANC:1,2010-03-01T13:54:00Z,28.1930,-82.7890,1.0,17.121,1111122 
COMPS,ioos:station:USF.COMPS:ANC:1,2010-03-01T14:00:00Z,28.1930,-82.7890,1.0,17.076,1111122 
COMPS,ioos:station:USF.COMPS:ANC:1,2010-03-01T14:06:00Z,28.1930,-82.7890,1.0,17.008,1111122 
COMPS,ioos:station:USF.COMPS:ANC:1,2010-03-01T14:12:00Z,28.1930,-82.7890,1.0,16.94,1111122 
COMPS,ioos:station:USF.COMPS:ANC:1,2010-03-01T14:18:00Z,28.1930,-82.7890,1.0,16.863,1111122 
COMPS,ioos:station:USF.COMPS:ANC:1,2010-03-01T14:24:00Z,28.1930,-82.7890,1.0,16.795,1111122 
COMPS,ioos:station:USF.COMPS:ANC:1,2010-03-01T14:30:00Z,28.1930,-82.7890,1.0,16.739,1111122 
COMPS,ioos:station:USF.COMPS:ANC:1,2010-03-01T14:36:00Z,28.1930,-82.7890,1.0,16.67,1111122 
COMPS,ioos:station:USF.COMPS:ANC:1,2010-03-01T14:42:00Z,28.1930,-82.7890,1.0,16.618,1111122 
COMPS,ioos:station:USF.COMPS:ANC:1,2010-03-01T14:48:00Z,28.1930,-82.7890,1.0,16.569,1111122 
COMPS,ioos:station:USF.COMPS:ANC:1,2010-03-01T14:54:00Z,28.1930,-82.7890,1.0,16.517,1111122 
COMPS,ioos:station:USF.COMPS:ANC:1,2010-03-01T15:00:00Z,28.1930,-82.7890,1.0,16.218,1111122 
COMPS,ioos:station:USF.COMPS:ANC:1,2010-03-01T15:06:00Z,28.1930,-82.7890,1.0,16.44,1111122 
COMPS,ioos:station:USF.COMPS:ANC:1,2010-03-01T15:12:00Z,28.1930,-82.7890,1.0,16.441,1111122 
COMPS,ioos:station:USF.COMPS:ANC:1,2010-03-01T15:18:00Z,28.1930,-82.7890,1.0,16.474,1111122 
COMPS,ioos:station:USF.COMPS:ANC:1,2010-03-01T15:24:00Z,28.1930,-82.7890,1.0,16.409,1111122 
COMPS,ioos:station:USF.COMPS:ANC:1,2010-03-01T15:30:00Z,28.1930,-82.7890,1.0,16.662,1111122 
COMPS,ioos:station:USF.COMPS:ANC:1,2010-03-01T15:36:00Z,28.1930,-82.7890,1.0,16.667,1111122 
COMPS,ioos:station:USF.COMPS:ANC:1,2010-03-01T15:42:00Z,28.1930,-82.7890,1.0,16.601,1111122 
COMPS,ioos:station:USF.COMPS:ANC:1,2010-03-01T15:48:00Z,28.1930,-82.7890,1.0,16.654,1111122 
COMPS,ioos:station:USF.COMPS:ANC:1,2010-03-01T15:54:00Z,28.1930,-82.7890,1.0,16.687,1111122 
COMPS,ioos:station:USF.COMPS:ANC:1,2010-03-01T16:00:00Z,28.1930,-82.7890,1.0,16.736,1111122 
COMPS,ioos:station:USF.COMPS:ANC:1,2010-03-01T16:06:00Z,28.1930,-82.7890,1.0,16.782,1111122 
COMPS,ioos:station:USF.COMPS:ANC:1,2010-03-01T16:12:00Z,28.1930,-82.7890,1.0,16.794,1111122 
COMPS,ioos:station:USF.COMPS:ANC:1,2010-03-01T16:18:00Z,28.1930,-82.7890,1.0,16.968,1111122 
COMPS,ioos:station:USF.COMPS:ANC:1,2010-03-01T16:24:00Z,28.1930,-82.7890,1.0,17.117,1111122 
COMPS,ioos:station:USF.COMPS:ANC:1,2010-03-01T16:30:00Z,28.1930,-82.7890,1.0,17.113,1111122 
COMPS,ioos:station:USF.COMPS:ANC:1,2010-03-01T16:36:00Z,28.1930,-82.7890,1.0,17.141,1111122 
COMPS,ioos:station:USF.COMPS:ANC:1,2010-03-01T16:42:00Z,28.1930,-82.7890,1.0,16.899,1111122 
COMPS,ioos:station:USF.COMPS:ANC:1,2010-03-01T16:48:00Z,28.1930,-82.7890,1.0,17.055,1111122 
COMPS,ioos:station:USF.COMPS:ANC:1,2010-03-01T16:54:00Z,28.1930,-82.7890,1.0,17.476,1111122 
COMPS,ioos:station:USF.COMPS:ANC:1,2010-03-01T17:00:00Z,28.1930,-82.7890,1.0,17.524,1111122 
COMPS,ioos:station:USF.COMPS:ANC:1,2010-03-01T17:06:00Z,28.1930,-82.7890,1.0,17.525,1111122 
COMPS,ioos:station:USF.COMPS:ANC:1,2010-03-01T17:12:00Z,28.1930,-82.7890,1.0,17.534,1111122 
COMPS,ioos:station:USF.COMPS:ANC:1,2010-03-01T17:18:00Z,28.1930,-82.7890,1.0,17.612,1111122 
COMPS,ioos:station:USF.COMPS:ANC:1,2010-03-01T17:24:00Z,28.1930,-82.7890,1.0,17.618,1111122 
COMPS,ioos:station:USF.COMPS:ANC:1,2010-03-01T17:30:00Z,28.1930,-82.7890,1.0,17.608,1111122 
COMPS,ioos:station:USF.COMPS:ANC:1,2010-03-01T17:36:00Z,28.1930,-82.7890,1.0,17.641,1111122 
COMPS,ioos:station:USF.COMPS:ANC:1,2010-03-01T17:42:00Z,28.1930,-82.7890,1.0,17.669,1111122 
COMPS,ioos:station:USF.COMPS:ANC:1,2010-03-01T17:48:00Z,28.1930,-82.7890,1.0,17.72,1111122 
COMPS,ioos:station:USF.COMPS:ANC:1,2010-03-01T17:54:00Z,28.1930,-82.7890,1.0,17.687,1111122 
COMPS,ioos:station:USF.COMPS:ANC:1,2010-03-01T18:00:00Z,28.1930,-82.7890,1.0,17.797,1111122 
COMPS,ioos:station:USF.COMPS:ANC:1,2010-03-01T18:06:00Z,28.1930,-82.7890,1.0,17.846,1111122 
COMPS,ioos:station:USF.COMPS:ANC:1,2010-03-01T18:12:00Z,28.1930,-82.7890,1.0,17.886,1111122 
COMPS,ioos:station:USF.COMPS:ANC:1,2010-03-01T18:18:00Z,28.1930,-82.7890,1.0,17.91,1111122 
COMPS,ioos:station:USF.COMPS:ANC:1,2010-03-01T18:24:00Z,28.1930,-82.7890,1.0,17.966,1111122 
COMPS,ioos:station:USF.COMPS:ANC:1,2010-03-01T18:30:00Z,28.1930,-82.7890,1.0,18.034,1111122 
COMPS,ioos:station:USF.COMPS:ANC:1,2010-03-01T18:36:00Z,28.1930,-82.7890,1.0,18.041,1111122 
COMPS,ioos:station:USF.COMPS:ANC:1,2010-03-01T18:42:00Z,28.1930,-82.7890,1.0,18.125,1111122 
COMPS,ioos:station:USF.COMPS:ANC:1,2010-03-01T18:48:00Z,28.1930,-82.7890,1.0,18.164,1111122 
COMPS,ioos:station:USF.COMPS:ANC:1,2010-03-01T18:54:00Z,28.1930,-82.7890,1.0,18.216,1111122 
COMPS,ioos:station:USF.COMPS:ANC:1,2010-03-01T19:00:00Z,28.1930,-82.7890,1.0,18.272,1111122 
COMPS,ioos:station:USF.COMPS:ANC:1,2010-03-01T19:06:00Z,28.1930,-82.7890,1.0,18.296,1111122 
COMPS,ioos:station:USF.COMPS:ANC:1,2010-03-01T19:12:00Z,28.1930,-82.7890,1.0,18.33,1111122 
COMPS,ioos:station:USF.COMPS:ANC:1,2010-03-01T19:18:00Z,28.1930,-82.7890,1.0,18.397,1111122 
COMPS,ioos:station:USF.COMPS:ANC:1,2010-03-01T19:24:00Z,28.1930,-82.7890,1.0,18.449,1111122 
COMPS,ioos:station:USF.COMPS:ANC:1,2010-03-01T19:30:00Z,28.1930,-82.7890,1.0,18.48,1111122 
COMPS,ioos:station:USF.COMPS:ANC:1,2010-03-01T19:36:00Z,28.1930,-82.7890,1.0,18.508,1111122 
COMPS,ioos:station:USF.COMPS:ANC:1,2010-03-01T19:42:00Z,28.1930,-82.7890,1.0,18.546,1111122 
COMPS,ioos:station:USF.COMPS:ANC:1,2010-03-01T19:48:00Z,28.1930,-82.7890,1.0,18.634,1111122 
COMPS,ioos:station:USF.COMPS:ANC:1,2010-03-01T19:54:00Z,28.1930,-82.7890,1.0,18.714,1111122 
COMPS,ioos:station:USF.COMPS:ANC:1,2010-03-01T20:00:00Z,28.1930,-82.7890,1.0,18.746,1111122 
COMPS,ioos:station:USF.COMPS:ANC:1,2010-03-01T20:06:00Z,28.1930,-82.7890,1.0,18.771,1111122 
COMPS,ioos:station:USF.COMPS:ANC:1,2010-03-01T20:12:00Z,28.1930,-82.7890,1.0,18.814,1111122 
COMPS,ioos:station:USF.COMPS:ANC:1,2010-03-01T20:18:00Z,28.1930,-82.7890,1.0,18.854,1111122 
COMPS,ioos:station:USF.COMPS:ANC:1,2010-03-01T20:24:00Z,28.1930,-82.7890,1.0,18.898,1111122 
COMPS,ioos:station:USF.COMPS:ANC:1,2010-03-01T20:30:00Z,28.1930,-82.7890,1.0,18.919,1111122 
COMPS,ioos:station:USF.COMPS:ANC:1,2010-03-01T20:36:00Z,28.1930,-82.7890,1.0,18.946,1111122 
COMPS,ioos:station:USF.COMPS:ANC:1,2010-03-01T20:42:00Z,28.1930,-82.7890,1.0,18.976,1111122 
COMPS,ioos:station:USF.COMPS:ANC:1,2010-03-01T20:48:00Z,28.1930,-82.7890,1.0,19.031,1111122 
COMPS,ioos:station:USF.COMPS:ANC:1,2010-03-01T20:54:00Z,28.1930,-82.7890,1.0,19.133,1111122 
COMPS,ioos:station:USF.COMPS:ANC:1,2010-03-01T21:00:00Z,28.1930,-82.7890,1.0,19.155,1111122 
COMPS,ioos:station:USF.COMPS:ANC:1,2010-03-01T21:06:00Z,28.1930,-82.7890,1.0,19.18,1111122 
COMPS,ioos:station:USF.COMPS:ANC:1,2010-03-01T21:12:00Z,28.1930,-82.7890,1.0,19.204,1111122 
COMPS,ioos:station:USF.COMPS:ANC:1,2010-03-01T21:18:00Z,28.1930,-82.7890,1.0,19.212,1111122 
COMPS,ioos:station:USF.COMPS:ANC:1,2010-03-01T21:24:00Z,28.1930,-82.7890,1.0,19.231,1111122 
COMPS,ioos:station:USF.COMPS:ANC:1,2010-03-01T21:30:00Z,28.1930,-82.7890,1.0,19.232,1111122 
COMPS,ioos:station:USF.COMPS:ANC:1,2010-03-01T21:36:00Z,28.1930,-82.7890,1.0,19.254,1111122 
COMPS,ioos:station:USF.COMPS:ANC:1,2010-03-01T21:42:00Z,28.1930,-82.7890,1.0,19.319,1111122 
COMPS,ioos:station:USF.COMPS:ANC:1,2010-03-01T21:48:00Z,28.1930,-82.7890,1.0,19.309,1111122 
COMPS,ioos:station:USF.COMPS:ANC:1,2010-03-01T21:54:00Z,28.1930,-82.7890,1.0,19.29,1111122 
COMPS,ioos:station:USF.COMPS:ANC:1,2010-03-01T22:00:00Z,28.1930,-82.7890,1.0,19.315,1111122 
COMPS,ioos:station:USF.COMPS:ANC:1,2010-03-01T22:06:00Z,28.1930,-82.7890,1.0,19.36,1111122 
COMPS,ioos:station:USF.COMPS:ANC:1,2010-03-01T22:12:00Z,28.1930,-82.7890,1.0,19.381,1111122 
COMPS,ioos:station:USF.COMPS:ANC:1,2010-03-01T22:18:00Z,28.1930,-82.7890,1.0,19.405,1111122 
COMPS,ioos:station:USF.COMPS:ANC:1,2010-03-01T22:24:00Z,28.1930,-82.7890,1.0,19.351,1111122 
COMPS,ioos:station:USF.COMPS:ANC:1,2010-03-01T22:30:00Z,28.1930,-82.7890,1.0,19.386,1111122 
COMPS,ioos:station:USF.COMPS:ANC:1,2010-03-01T22:36:00Z,28.1930,-82.7890,1.0,19.367,1111122 
COMPS,ioos:station:USF.COMPS:ANC:1,2010-03-01T22:42:00Z,28.1930,-82.7890,1.0,19.263,1111122 
COMPS,ioos:station:USF.COMPS:ANC:1,2010-03-01T22:48:00Z,28.1930,-82.7890,1.0,19.338,1111122 
COMPS,ioos:station:USF.COMPS:ANC:1,2010-03-01T22:54:00Z,28.1930,-82.7890,1.0,19.303,1111122 
COMPS,ioos:station:USF.COMPS:ANC:1,2010-03-01T23:00:00Z,28.1930,-82.7890,1.0,19.364,1111122 
COMPS,ioos:station:USF.COMPS:ANC:1,2010-03-01T23:06:00Z,28.1930,-82.7890,1.0,19.373,1111122 
COMPS,ioos:station:USF.COMPS:ANC:1,2010-03-01T23:12:00Z,28.1930,-82.7890,1.0,19.354,1111122 
COMPS,ioos:station:USF.COMPS:ANC:1,2010-03-01T23:18:00Z,28.1930,-82.7890,1.0,19.145,1111122 
COMPS,ioos:station:USF.COMPS:ANC:1,2010-03-01T23:24:00Z,28.1930,-82.7890,1.0,19.297,1111122 
COMPS,ioos:station:USF.COMPS:ANC:1,2010-03-01T23:30:00Z,28.1930,-82.7890,1.0,19.271,1111122 
COMPS,ioos:station:USF.COMPS:ANC:1,2010-03-01T23:36:00Z,28.1930,-82.7890,1.0,19.261,1111122 
COMPS,ioos:station:USF.COMPS:ANC:1,2010-03-01T23:42:00Z,28.1930,-82.7890,1.0,19.219,1111122 
COMPS,ioos:station:USF.COMPS:ANC:1,2010-03-01T23:48:00Z,28.1930,-82.7890,1.0,19.166,1111122 
COMPS,ioos:station:USF.COMPS:ANC:1,2010-03-01T23:54:00Z,28.1930,-82.7890,1.0,19.159,1111122 
COMPS,ioos:station:USF.COMPS:ANC:1,2010-03-02T00:00:00Z,28.1930,-82.7890,1.0,19.121,1111122 
COMPS,ioos:station:USF.COMPS:ANC:1,2010-03-02T00:06:00Z,28.1930,-82.7890,1.0,19.069,1111122 
COMPS,ioos:station:USF.COMPS:ANC:1,2010-03-02T00:12:00Z,28.1930,-82.7890,1.0,19.053,1111122 
COMPS,ioos:station:USF.COMPS:ANC:1,2010-03-02T00:18:00Z,28.1930,-82.7890,1.0,19.022,1111122 
COMPS,ioos:station:USF.COMPS:ANC:1,2010-03-02T00:24:00Z,28.1930,-82.7890,1.0,18.992,1111122 
COMPS,ioos:station:USF.COMPS:ANC:1,2010-03-02T00:30:00Z,28.1930,-82.7890,1.0,18.945,1111122 
COMPS,ioos:station:USF.COMPS:ANC:1,2010-03-02T00:36:00Z,28.1930,-82.7890,1.0,18.909,1111122 
COMPS,ioos:station:USF.COMPS:ANC:1,2010-03-02T00:42:00Z,28.1930,-82.7890,1.0,18.821,1111122 
COMPS,ioos:station:USF.COMPS:ANC:1,2010-03-02T00:48:00Z,28.1930,-82.7890,1.0,18.741,1111122 
COMPS,ioos:station:USF.COMPS:ANC:1,2010-03-02T00:54:00Z,28.1930,-82.7890,1.0,18.667,1111122 
COMPS,ioos:station:USF.COMPS:ANC:1,2010-03-02T01:00:00Z,28.1930,-82.7890,1.0,18.575,1111122 
COMPS,ioos:station:USF.COMPS:ANC:1,2010-03-02T01:06:00Z,28.1930,-82.7890,1.0,18.482,1111122 
COMPS,ioos:station:USF.COMPS:ANC:1,2010-03-02T01:12:00Z,28.1930,-82.7890,1.0,18.465,1111122 
COMPS,ioos:station:USF.COMPS:ANC:1,2010-03-02T01:18:00Z,28.1930,-82.7890,1.0,18.373,1111122 
COMPS,ioos:station:USF.COMPS:ANC:1,2010-03-02T01:24:00Z,28.1930,-82.7890,1.0,18.284,1111122 
COMPS,ioos:station:USF.COMPS:ANC:1,2010-03-02T01:30:00Z,28.1930,-82.7890,1.0,18.09,1111122 
COMPS,ioos:station:USF.COMPS:ANC:1,2010-03-02T01:36:00Z,28.1930,-82.7890,1.0,17.94,1111122 